Stations météo

réclame
Mon MeteoGroup
Pisa/S. Giusto, Italie (16158): Température de l'air & dewpoint: 09.12.2017 14:00:00 - 15.12.2017 14:00:00 (CET)Pisa/S. Giusto, Italie (16158): Vitesse du vent: 09.12.2017 14:00:00 - 15.12.2017 14:00:00 (CET)Pisa/S. Giusto, Italie (16158): Direction du vent: 09.12.2017 14:00:00 - 15.12.2017 14:00:00 (CET)Pisa/S. Giusto, Italie (16158): reduced air pressure: 09.12.2017 14:00:00 - 15.12.2017 14:00:00 (CET)Pisa/S. Giusto, Italie (16158): visibility: 09.12.2017 14:00:00 - 15.12.2017 14:00:00 (CET)Pisa/S. Giusto, Italie (16158): Ensoleillement: 09.12.2017 14:00:00 - 15.12.2017 14:00:00 (CET)
Date & Time tt [°C] td [°C] ff [km/h] ff [knt] dd ppp [hPa] vv [km] sd [min]
15.12.2017 14:00:00 13,0 8,0 21 11 WSW - 10 -
15.12.2017 13:00:00 12,6 9,4 24 13 SW 999,9 10 0
15.12.2017 12:00:00 13,0 10,0 21 11 WSW - 10 -
15.12.2017 11:00:00 13,0 10,0 24 13 SW - 10 -
15.12.2017 10:00:00 13,6 10,8 24 13 SW 1002,8 10 0
15.12.2017 09:00:00 14,0 9,0 26 14 SW - 10 -
15.12.2017 08:00:00 14,0 8,0 28 15 SW - 10 -
15.12.2017 07:00:00 13,4 8,9 28 15 WSW 1003,7 10 0
15.12.2017 06:00:00 13,0 10,0 26 14 SW - 10 -
15.12.2017 05:00:00 13,0 10,0 28 15 SW - 10 -
15.12.2017 04:00:00 13,0 9,6 22 12 SSW 1005,7 10 -
15.12.2017 03:00:00 13,0 10,0 22 12 WSW - 10 -
15.12.2017 02:00:00 13,0 9,0 22 12 SW - 10 -
15.12.2017 01:00:00 13,0 8,9 26 14 SW 1007,8 10 -
15.12.2017 00:00:00 13,0 9,0 22 12 WSW - 10 -
14.12.2017 23:00:00 13,0 9,0 26 14 SW - 10 -
14.12.2017 22:00:00 13,0 9,2 34 18 SW 1008,7 10 -
14.12.2017 21:00:00 13,0 9,0 35 19 SW - 10 -
14.12.2017 20:00:00 13,0 9,0 28 15 SW - 10 -
14.12.2017 19:00:00 13,0 10,4 24 13 SW 1009,7 10 -
14.12.2017 18:00:00 13,0 11,0 22 12 SW - 10 -
14.12.2017 17:00:00 13,0 10,0 24 13 SW - 10 -
14.12.2017 16:00:00 13,2 10,4 31 17 WSW 1010,2 10 0
14.12.2017 15:00:00 13,0 10,0 34 18 WSW - 10 -
14.12.2017 14:00:00 13,0 10,0 28 15 WSW - 10 -
14.12.2017 13:00:00 13,0 10,2 34 18 WSW 1011,2 10 0
14.12.2017 12:00:00 13,0 10,0 24 13 WSW - 10 -
14.12.2017 11:00:00 13,0 11,0 26 14 WSW - 10 -
14.12.2017 10:00:00 12,4 10,0 31 17 SW 1011,9 10 0
14.12.2017 09:00:00 12,0 10,0 34 18 WSW - 10 -
14.12.2017 08:00:00 12,0 10,0 34 18 WSW - 10 -
14.12.2017 07:00:00 11,8 9,4 34 18 SW 1011,8 4,0 0
14.12.2017 06:00:00 12,0 10,0 41 22 WSW - 7 -
14.12.2017 05:00:00 12,0 10,0 35 19 WSW - 7 -
14.12.2017 04:00:00 11,0 9,4 34 18 WSW 1013,9 6 -
14.12.2017 03:00:00 11,0 8,0 41 22 WSW - 5 -
14.12.2017 02:00:00 11,0 10,0 35 19 WSW - 6 -
14.12.2017 01:00:00 12,0 6,7 35 19 SW 1015,8 10 -
14.12.2017 00:00:00 12,0 6,0 39 21 WSW - 10 -
13.12.2017 23:00:00 12,0 7,0 42 23 WSW - 10 -
13.12.2017 22:00:00 11,0 6,2 37 20 WSW 1017,3 10 -
13.12.2017 21:00:00 11,0 4,0 26 14 WSW - 10 -
13.12.2017 20:00:00 10,0 4,0 24 13 WSW - 10 -
13.12.2017 19:00:00 10,2 4,4 26 14 WSW 1017,3 10 0
13.12.2017 18:00:00 10,0 4,0 34 18 WSW - 10 -
13.12.2017 17:00:00 10,0 3,0 26 14 WSW - 10 -
13.12.2017 16:00:00 10,8 5,5 21 11 WSW 1016,9 10 60
13.12.2017 15:00:00 11,0 5,0 26 14 WSW - 10 -
13.12.2017 14:00:00 11,0 4,0 21 11 SW - 10 -
13.12.2017 13:00:00 12,2 4,4 26 14 WSW 1017,7 10 48
13.12.2017 12:00:00 12,0 6,0 24 13 WSW - 10 -
13.12.2017 11:00:00 12,0 6,0 18 10 WSW - 10 -
13.12.2017 10:00:00 10,0 6,4 5 3 SE 1018,2 10 24
13.12.2017 09:00:00 10,0 6,0 9 5 SW - 10 -
13.12.2017 08:00:00 9,0 5,0 11 6 SW - 10 -
13.12.2017 07:00:00 9,8 6,3 18 10 W 1016,9 10 0
13.12.2017 06:00:00 9,0 6,0 16 9 W - 10 -
13.12.2017 05:00:00 9,0 6,0 11 6 WSW - 10 -
13.12.2017 04:00:00 10,4 6,7 13 7 WSW 1016,3 10 -
13.12.2017 03:00:00 10,0 7,0 15 8 WSW - 10 -
13.12.2017 02:00:00 10,0 9,0 8 4 ESE - 10 -
13.12.2017 01:00:00 9,4 8,6 8 4 ESE 1015,8 10 -
13.12.2017 00:00:00 9,0 9,0 5 3 ESE - 10 -
12.12.2017 23:00:00 9,0 9,0 9 5 E - 10 -
12.12.2017 22:00:00 9,4 8,6 5 3 ENE 1015,3 10 -
12.12.2017 21:00:00 9,0 8,0 8 4 E - 10 -
12.12.2017 20:00:00 9,0 8,0 8 4 E - 10 -
12.12.2017 19:00:00 9,8 8,4 5 3 ESE 1013,8 10 -
12.12.2017 18:00:00 10,0 9,0 8 4 ESE - 10 -
12.12.2017 17:00:00 10,0 9,0 8 4 E - 10 -
12.12.2017 16:00:00 10,6 8,9 5 3 SE 1012,8 10 0
12.12.2017 15:00:00 11,0 9,0 4 2 SSE - 10 -
12.12.2017 14:00:00 11,0 11,0 8 4 S - 10 -
12.12.2017 13:00:00 11,0 10,4 9 5 SSE 1011,8 10 0
12.12.2017 12:00:00 11,0 10,0 9 5 SE - 10 -
12.12.2017 11:00:00 11,0 10,0 8 4 SSE - 10 -
12.12.2017 10:00:00 10,6 9,0 9 5 E 1010,6 10 0
12.12.2017 09:00:00 11,0 10,0 15 8 WSW - 10 -
12.12.2017 08:00:00 11,0 9,0 5 3 - - 10 -
12.12.2017 07:00:00 11,4 8,3 5 3 - 1007,1 10 -
12.12.2017 06:00:00 12,0 9,0 11 6 WSW - 10 -
12.12.2017 05:00:00 12,0 10,0 16 9 WSW - 10 -
12.12.2017 04:00:00 11,8 10,9 15 8 WSW 1004,9 10 -
12.12.2017 03:00:00 12,0 11,0 15 8 WSW - 10 -
12.12.2017 02:00:00 12,0 11,0 22 12 WSW - 5 -
12.12.2017 01:00:00 14,4 12,8 34 18 WSW 1000,7 7 -
12.12.2017 00:00:00 16,0 11,0 39 21 S - 10 -
11.12.2017 23:00:00 17,0 10,0 37 20 S - 10 -
11.12.2017 22:00:00 16,0 11,0 39 21 S 998,3 10 -
11.12.2017 21:00:00 16,0 11,0 31 17 S - 10 -
11.12.2017 20:00:00 16,0 11,0 28 15 S - 10 -
11.12.2017 19:00:00 16,0 11,4 29 16 S 998,9 10 -
11.12.2017 18:00:00 16,0 12,0 28 15 S - 10 -
11.12.2017 17:00:00 15,0 12,0 35 19 S - 10 -
11.12.2017 16:00:00 15,6 11,4 28 15 S 998,6 10 0
11.12.2017 15:00:00 16,0 11,0 31 17 S - 10 -
11.12.2017 14:00:00 15,0 11,0 37 20 S - 10 -
11.12.2017 13:00:00 15,4 11,0 29 16 S 1000,1 10 0
11.12.2017 12:00:00 16,0 11,0 34 18 S - 10 -
11.12.2017 11:00:00 15,0 11,0 31 17 S - 10 -
11.12.2017 10:00:00 14,2 10,2 28 15 S 1000,2 10 0
11.12.2017 09:00:00 14,0 10,0 28 15 SSW - 10 -
11.12.2017 08:00:00 14,0 10,0 28 15 S - 10 -
11.12.2017 07:00:00 13,8 11,7 24 13 S 999,7 10 -
11.12.2017 06:00:00 14,0 12,0 21 11 SSW - 10 -
11.12.2017 05:00:00 13,0 13,0 28 15 SW - 5 -
11.12.2017 04:00:00 13,4 11,6 13 7 SSW 1001,8 10 -
11.12.2017 03:00:00 13,0 12,0 29 16 SSW - 10 -
11.12.2017 02:00:00 13,0 12,0 24 13 SW - 10 -
11.12.2017 01:00:00 13,4 11,6 18 10 SSW 1002,8 10 -
11.12.2017 00:00:00 13,0 12,0 28 15 SSW - 10 -
10.12.2017 23:00:00 13,0 12,0 26 14 SSW - 10 -
10.12.2017 22:00:00 12,8 11,4 21 11 SSW 1003,7 10 -
10.12.2017 21:00:00 13,0 11,0 18 10 S - 10 -
10.12.2017 20:00:00 12,0 11,0 24 13 SSW - 10 -
10.12.2017 19:00:00 10,0 9,1 26 14 SW 1004,1 4,0 -
10.12.2017 18:00:00 8,0 7,0 11 6 SE - 4,0 -
10.12.2017 17:00:00 6,0 5,0 13 7 E - 4,0 -
10.12.2017 16:00:00 4,6 3,7 16 9 ESE 1006,8 4,0 0
10.12.2017 15:00:00 4,0 3,0 13 7 ESE - 4,0 -
10.12.2017 14:00:00 5,0 4,0 15 8 ESE - 10 -
10.12.2017 13:00:00 3,0 2,3 18 10 ESE 1011,8 7 0
10.12.2017 12:00:00 3,0 2,0 18 10 E - 7 -
10.12.2017 11:00:00 2,0 1,0 11 6 ESE - 5 -
10.12.2017 10:00:00 2,0 -1,1 21 11 ESE 1015,1 5 0
10.12.2017 09:00:00 2,0 -2,0 11 6 ESE - 10 -
10.12.2017 08:00:00 1,0 -3,0 8 4 E - 10 -
10.12.2017 07:00:00 0,2 -1,9 9 5 SE 1015,6 10 0
10.12.2017 06:00:00 0,0 -2,0 8 4 SE - 10 -
10.12.2017 05:00:00 0,0 -2,0 4 2 - - 10 -
10.12.2017 04:00:00 -1,4 -2,8 5 3 E 1016,6 10 -
10.12.2017 03:00:00 -2,0 -3,0 13 7 E - 10 -
10.12.2017 02:00:00 -2,0 -3,0 9 5 ESE - 10 -
10.12.2017 01:00:00 -2,0 -2,8 11 6 SE 1017,5 10 -
10.12.2017 00:00:00 -2,0 -3,0 9 5 E - 10 -
09.12.2017 23:00:00 -1,0 -2,0 4 2 - - 10 -
09.12.2017 22:00:00 -0,6 -3,3 8 4 SE 1016,9 10 -
09.12.2017 21:00:00 -1,0 -4,0 5 3 E - 10 -
09.12.2017 20:00:00 -1,0 -4,0 4 2 - - 10 -
09.12.2017 19:00:00 2,0 -5,9 8 4 S 1015,7 10 -
09.12.2017 18:00:00 2,0 -7,0 8 4 S - 10 -
09.12.2017 17:00:00 5,0 -10,0 8 4 N - 10 -
09.12.2017 16:00:00 7,8 -10,0 18 10 N 1012,9 10 60
09.12.2017 15:00:00 8,0 -12,0 16 9 N - 10 -
09.12.2017 14:00:00 9,0 -12,0 16 9 NNW - 10 -

tt = Température de l'air
td = dewpoint
ff = Vitesse du vent
dd = Direction du vent
ppp = reduced air pressure
vv = visibility
sd = Ensoleillement

stations d'obs. à proximité